Location: Newark
(53.2933°N, 6.3959°W)
Time: 12:42:28
(UTC+00:00)

Envisat - Pass Details

Date: 26 February 2020
Orbit: 764 x 766 km, 98.1° (Epoch: 05 April)

Event Time Altitude Azimuth Distance (km) Brightness Sun altitude
Rises 19:22:02 0° 208° (SSW) 3,225 6.6 -13.5°
Reaches altitude 10° 19:24:57 10° 225° (SW) 2,304 6.1 -13.9°
Maximum altitude 19:28:37 20° 272° (W) 1,733 5.9 -14.4°
Drops below altitude 10° 19:32:18 10° 318° (NW) 2,317 6.2 -15.0°
Sets 19:35:15 0° 336° (NNW) 3,248 6.7 -15.4°
